sat.trackr.live / text

‹ back to catalog

STARLINK-4177

NORAD 53013 · 2022-076AD

PAYLOAD ACTIVE UNKNOWN

§ Identity

Operator
Country
US
Launch date
2022-07-07
Launch site
AFETR
Launch vehicle
Mass (kg)
RCS (m²)

Purposes: comms

External: N2YO · Heavens-Above · Gunter

§ Orbital elements

Epoch: 2026-09-19T18:31:41.338272Z

Period
93.82 min
Inclination
53.1611°
Eccentricity
0.0001544
Mean motion
15.34851559 rev/d
Perigee alt
460.3 km
Apogee alt
462.4 km
Semi-major
6,839.5 km
B*
-1.9422e-3
RAAN
277.4098°
Arg perigee
73.7247°
Mean anomaly
286.3925°
Rev number
23,249

§ Raw data

STARLINK-41771 53013U 22076AD  26262.77200623 -.00066368  00000+0 -19422-2 0  99942 53013  53.1611 277.4098 0001544  73.7247 286.3925 15.34851559232493

JSON: /api/v1/satellites/53013 · /tle

For live sub-satellite position, see the globe view (requires WebGL).

§ Visibility from observer

Set your observer location to see the next 7 days of passes ≥ 10°. The values pass through the URL so the page stays shareable.

No JS? Fill the form by hand. The geolocation button needs JavaScript.